Tracking 29091 objects as of 17-Jul-2024
HD Live streaming from Space Station
objects crossing your sky now

STARLINK-6124

Track STARLINK-6124 now!
10-day predictions
STARLINK-6124 is classified as:


NORAD ID: 56126
Int'l Code: 2023-046AL
Perigee: 565.3 km
Apogee: 567.1 km
Inclination: 43.0 °
Period: 95.8 minutes
Semi major axis: 6937 km
RCS: Unknown
Launch date: March 29, 2023
Source: United States (US)
Launch site: AIR FORCE EASTERN TEST RANGE (AFETR)
Your satellite tracking list
Your tracking list is empty




NASA's NSSDC Master Catalog

Two Line Element Set (TLE):
1 56126U 23046AL  24199.28905967 -.00000428  00000-0 -16632-4 0  9994
2 56126  43.0027 168.5938 0001353 270.9799  89.0888 15.02541708 72433
Source of the keplerian elements: AFSPC